#datetime,building,power
2024-03-16T00:00:00,prt,20.32
2024-03-16T00:01:00,prt,19.84
2024-03-16T00:02:00,prt,21.55
2024-03-16T00:03:00,prt,21.20
2024-03-16T00:04:00,prt,20.49
2024-03-16T00:05:00,prt,19.48
2024-03-16T00:06:00,prt,21.12
2024-03-16T00:07:00,prt,21.82
2024-03-16T00:08:00,prt,21.53
2024-03-16T00:09:00,prt,22.66
2024-03-16T00:10:00,prt,21.32
2024-03-16T00:11:00,prt,21.26
2024-03-16T00:12:00,prt,20.75
2024-03-16T00:13:00,prt,21.38
2024-03-16T00:14:00,prt,22.88
2024-03-16T00:15:00,prt,22.28
2024-03-16T00:16:00,prt,21.87
2024-03-16T00:17:00,prt,20.66
2024-03-16T00:18:00,prt,26.29
2024-03-16T00:19:00,prt,27.28
2024-03-16T00:20:00,prt,26.50
2024-03-16T00:21:00,prt,24.34
2024-03-16T00:22:00,prt,26.09
2024-03-16T00:23:00,prt,26.84
2024-03-16T00:24:00,prt,25.18
2024-03-16T00:25:00,prt,23.01
2024-03-16T00:26:00,prt,21.22
2024-03-16T00:27:00,prt,22.07
2024-03-16T00:28:00,prt,21.03
2024-03-16T00:29:00,prt,20.76
2024-03-16T00:30:00,prt,20.71
2024-03-16T00:31:00,prt,19.86
2024-03-16T00:32:00,prt,18.87
2024-03-16T00:33:00,prt,19.08
2024-03-16T00:34:00,prt,20.50
2024-03-16T00:35:00,prt,22.04
2024-03-16T00:36:00,prt,18.81
2024-03-16T00:37:00,prt,19.64
2024-03-16T00:38:00,prt,19.16
2024-03-16T00:39:00,prt,17.95
2024-03-16T00:40:00,prt,21.45
2024-03-16T00:41:00,prt,22.54
2024-03-16T00:42:00,prt,22.80
2024-03-16T00:43:00,prt,22.67
2024-03-16T00:44:00,prt,22.63
2024-03-16T00:45:00,prt,27.24
2024-03-16T00:46:00,prt,22.97
2024-03-16T00:47:00,prt,24.22
2024-03-16T00:48:00,prt,23.95
2024-03-16T00:49:00,prt,23.48
2024-03-16T00:50:00,prt,22.52
2024-03-16T00:51:00,prt,19.88
2024-03-16T00:52:00,prt,22.60
2024-03-16T00:53:00,prt,21.68
2024-03-16T00:54:00,prt,21.33
2024-03-16T00:55:00,prt,23.55
2024-03-16T00:56:00,prt,28.23
2024-03-16T00:57:00,prt,27.98
2024-03-16T00:58:00,prt,29.38
2024-03-16T00:59:00,prt,22.90
2024-03-16T01:00:00,prt,24.19
2024-03-16T01:01:00,prt,23.73
2024-03-16T01:02:00,prt,25.55
2024-03-16T01:03:00,prt,24.37
2024-03-16T01:04:00,prt,25.23
2024-03-16T01:05:00,prt,22.99
2024-03-16T01:06:00,prt,22.22
2024-03-16T01:07:00,prt,22.14
2024-03-16T01:08:00,prt,21.56
2024-03-16T01:09:00,prt,22.65
2024-03-16T01:10:00,prt,23.03
2024-03-16T01:11:00,prt,22.86
2024-03-16T01:12:00,prt,23.80
2024-03-16T01:13:00,prt,24.90
2024-03-16T01:14:00,prt,24.25
2024-03-16T01:15:00,prt,23.70
2024-03-16T01:16:00,prt,23.66
2024-03-16T01:17:00,prt,23.26
2024-03-16T01:18:00,prt,24.16
2024-03-16T01:19:00,prt,25.22
2024-03-16T01:20:00,prt,25.67
2024-03-16T01:21:00,prt,24.68
2024-03-16T01:22:00,prt,24.63
2024-03-16T01:23:00,prt,25.82
2024-03-16T01:24:00,prt,23.80
2024-03-16T01:25:00,prt,23.09
2024-03-16T01:26:00,prt,25.80
2024-03-16T01:27:00,prt,25.59
2024-03-16T01:28:00,prt,24.87
2024-03-16T01:29:00,prt,27.81
2024-03-16T01:30:00,prt,28.81
2024-03-16T01:31:00,prt,28.55
2024-03-16T01:32:00,prt,26.67
2024-03-16T01:33:00,prt,25.72
2024-03-16T01:34:00,prt,25.88
2024-03-16T01:35:00,prt,25.85
2024-03-16T01:36:00,prt,27.59
2024-03-16T01:37:00,prt,30.11
2024-03-16T01:38:00,prt,26.97
2024-03-16T01:39:00,prt,26.12
2024-03-16T01:40:00,prt,25.92
2024-03-16T01:41:00,prt,22.04
2024-03-16T01:42:00,prt,20.80
2024-03-16T01:43:00,prt,20.04
2024-03-16T01:44:00,prt,18.23
2024-03-16T01:45:00,prt,19.08
2024-03-16T01:46:00,prt,19.30
2024-03-16T01:47:00,prt,18.23
2024-03-16T01:48:00,prt,18.50
2024-03-16T01:49:00,prt,19.17
2024-03-16T01:50:00,prt,19.67
2024-03-16T01:51:00,prt,19.56
2024-03-16T01:52:00,prt,21.47
2024-03-16T01:53:00,prt,21.57
2024-03-16T01:54:00,prt,22.13
2024-03-16T01:55:00,prt,25.87
2024-03-16T01:56:00,prt,24.01
2024-03-16T01:57:00,prt,23.91
2024-03-16T01:58:00,prt,23.65
2024-03-16T01:59:00,prt,24.56
2024-03-16T02:00:00,prt,24.32
2024-03-16T02:01:00,prt,20.94
2024-03-16T02:02:00,prt,23.00
2024-03-16T02:03:00,prt,23.02
2024-03-16T02:04:00,prt,23.80
2024-03-16T02:05:00,prt,22.12
2024-03-16T02:06:00,prt,20.61
2024-03-16T02:07:00,prt,22.32
2024-03-16T02:08:00,prt,21.89
2024-03-16T02:09:00,prt,26.15
2024-03-16T02:10:00,prt,23.42
2024-03-16T02:11:00,prt,23.65
2024-03-16T02:12:00,prt,24.41
2024-03-16T02:13:00,prt,23.86
2024-03-16T02:14:00,prt,23.06
2024-03-16T02:15:00,prt,22.36
2024-03-16T02:16:00,prt,20.44
2024-03-16T02:17:00,prt,19.44
2024-03-16T02:18:00,prt,20.43
2024-03-16T02:19:00,prt,21.07
2024-03-16T02:20:00,prt,23.65
2024-03-16T02:21:00,prt,23.82
2024-03-16T02:22:00,prt,21.99
2024-03-16T02:23:00,prt,21.55
2024-03-16T02:24:00,prt,21.77
2024-03-16T02:25:00,prt,22.21
2024-03-16T02:26:00,prt,19.65
2024-03-16T02:27:00,prt,19.87
2024-03-16T02:28:00,prt,19.44
2024-03-16T02:29:00,prt,20.48
2024-03-16T02:30:00,prt,19.91
2024-03-16T02:31:00,prt,19.23
2024-03-16T02:32:00,prt,20.00
2024-03-16T02:33:00,prt,21.48
2024-03-16T02:34:00,prt,21.14
2024-03-16T02:35:00,prt,23.51
2024-03-16T02:36:00,prt,23.82
2024-03-16T02:37:00,prt,24.48
2024-03-16T02:38:00,prt,23.84
2024-03-16T02:39:00,prt,21.46
2024-03-16T02:40:00,prt,19.63
2024-03-16T02:41:00,prt,18.87
2024-03-16T02:42:00,prt,18.33
2024-03-16T02:43:00,prt,18.77
2024-03-16T02:44:00,prt,19.26
2024-03-16T02:45:00,prt,20.17
2024-03-16T02:46:00,prt,21.08
2024-03-16T02:47:00,prt,26.19
2024-03-16T02:48:00,prt,26.05
2024-03-16T02:49:00,prt,25.18
2024-03-16T02:50:00,prt,26.05
2024-03-16T02:51:00,prt,26.59
2024-03-16T02:52:00,prt,25.75
2024-03-16T02:53:00,prt,21.62
2024-03-16T02:54:00,prt,21.76
2024-03-16T02:55:00,prt,19.87
2024-03-16T02:56:00,prt,20.53
2024-03-16T02:57:00,prt,19.93
2024-03-16T02:58:00,prt,19.92
2024-03-16T02:59:00,prt,20.00
2024-03-16T03:00:00,prt,19.83
2024-03-16T03:01:00,prt,19.14
2024-03-16T03:02:00,prt,19.57
2024-03-16T03:03:00,prt,19.42
2024-03-16T03:04:00,prt,21.43
2024-03-16T03:05:00,prt,21.51
2024-03-16T03:06:00,prt,22.61
2024-03-16T03:07:00,prt,22.88
2024-03-16T03:08:00,prt,22.58
2024-03-16T03:09:00,prt,23.09
2024-03-16T03:10:00,prt,23.31
2024-03-16T03:11:00,prt,23.75
2024-03-16T03:12:00,prt,21.79
2024-03-16T03:13:00,prt,21.74
2024-03-16T03:14:00,prt,23.48
2024-03-16T03:15:00,prt,21.01
2024-03-16T03:16:00,prt,23.02
2024-03-16T03:17:00,prt,22.35
2024-03-16T03:18:00,prt,22.45
2024-03-16T03:19:00,prt,22.77
2024-03-16T03:20:00,prt,22.24
2024-03-16T03:21:00,prt,22.54
2024-03-16T03:22:00,prt,20.34
2024-03-16T03:23:00,prt,20.37
2024-03-16T03:24:00,prt,20.38
2024-03-16T03:25:00,prt,20.21
2024-03-16T03:26:00,prt,23.22
2024-03-16T03:27:00,prt,22.85
2024-03-16T03:28:00,prt,22.08
2024-03-16T03:29:00,prt,22.73
2024-03-16T03:30:00,prt,21.82
2024-03-16T03:31:00,prt,21.23
2024-03-16T03:32:00,prt,25.83
2024-03-16T03:33:00,prt,23.59
2024-03-16T03:34:00,prt,20.62
2024-03-16T03:35:00,prt,20.00
2024-03-16T03:36:00,prt,21.21
2024-03-16T03:37:00,prt,21.59
2024-03-16T03:38:00,prt,22.38
2024-03-16T03:39:00,prt,22.60
2024-03-16T03:40:00,prt,21.98
2024-03-16T03:41:00,prt,20.55
2024-03-16T03:42:00,prt,24.98
2024-03-16T03:43:00,prt,24.86
2024-03-16T03:44:00,prt,23.27
2024-03-16T03:45:00,prt,18.93
2024-03-16T03:46:00,prt,22.42
2024-03-16T03:47:00,prt,22.56
2024-03-16T03:48:00,prt,24.68
2024-03-16T03:49:00,prt,23.50
2024-03-16T03:50:00,prt,27.61
2024-03-16T03:51:00,prt,24.88
2024-03-16T03:52:00,prt,22.05
2024-03-16T03:53:00,prt,23.60
2024-03-16T03:54:00,prt,21.79
2024-03-16T03:55:00,prt,22.07
2024-03-16T03:56:00,prt,19.99
2024-03-16T03:57:00,prt,20.48
2024-03-16T03:58:00,prt,20.73
2024-03-16T03:59:00,prt,19.34
2024-03-16T04:00:00,prt,19.89
2024-03-16T04:01:00,prt,24.33
2024-03-16T04:02:00,prt,27.10
2024-03-16T04:03:00,prt,26.32
2024-03-16T04:04:00,prt,26.34
2024-03-16T04:05:00,prt,28.43
2024-03-16T04:06:00,prt,29.45
2024-03-16T04:07:00,prt,27.78
2024-03-16T04:08:00,prt,28.96
2024-03-16T04:09:00,prt,29.18
2024-03-16T04:10:00,prt,28.33
2024-03-16T04:11:00,prt,28.43
2024-03-16T04:12:00,prt,25.76
2024-03-16T04:13:00,prt,26.01
2024-03-16T04:14:00,prt,25.00
2024-03-16T04:15:00,prt,31.91
2024-03-16T04:16:00,prt,33.49
2024-03-16T04:17:00,prt,32.45
2024-03-16T04:18:00,prt,30.36
2024-03-16T04:19:00,prt,30.15
2024-03-16T04:20:00,prt,28.54
2024-03-16T04:21:00,prt,25.37
2024-03-16T04:22:00,prt,25.88
2024-03-16T04:23:00,prt,25.88
2024-03-16T04:24:00,prt,27.63
2024-03-16T04:25:00,prt,25.03
2024-03-16T04:26:00,prt,25.88
2024-03-16T04:27:00,prt,27.16
2024-03-16T04:28:00,prt,27.82
2024-03-16T04:29:00,prt,26.52
2024-03-16T04:30:00,prt,28.75
2024-03-16T04:31:00,prt,29.25
2024-03-16T04:32:00,prt,27.02
2024-03-16T04:33:00,prt,26.32
2024-03-16T04:34:00,prt,26.64
2024-03-16T04:35:00,prt,26.50
2024-03-16T04:36:00,prt,25.98
2024-03-16T04:37:00,prt,25.92
2024-03-16T04:38:00,prt,24.87
2024-03-16T04:39:00,prt,25.00
2024-03-16T04:40:00,prt,25.00
2024-03-16T04:41:00,prt,23.70
2024-03-16T04:42:00,prt,24.25
2024-03-16T04:43:00,prt,25.56
2024-03-16T04:44:00,prt,29.50
2024-03-16T04:45:00,prt,32.53
2024-03-16T04:46:00,prt,35.25
2024-03-16T04:47:00,prt,29.72
2024-03-16T04:48:00,prt,35.32
2024-03-16T04:49:00,prt,34.51
2024-03-16T04:50:00,prt,34.57
2024-03-16T04:51:00,prt,29.28
2024-03-16T04:52:00,prt,26.09
2024-03-16T04:53:00,prt,29.14
2024-03-16T04:54:00,prt,25.80
2024-03-16T04:55:00,prt,25.80
2024-03-16T04:56:00,prt,27.33
2024-03-16T04:57:00,prt,26.52
2024-03-16T04:58:00,prt,27.90
2024-03-16T04:59:00,prt,26.74
2024-03-16T05:00:00,prt,25.86
2024-03-16T05:01:00,prt,27.59
2024-03-16T05:02:00,prt,27.71
2024-03-16T05:03:00,prt,29.06
2024-03-16T05:04:00,prt,28.82
2024-03-16T05:05:00,prt,27.97
2024-03-16T05:06:00,prt,27.06
2024-03-16T05:07:00,prt,27.18
2024-03-16T05:08:00,prt,27.44
2024-03-16T05:09:00,prt,29.68
2024-03-16T05:10:00,prt,27.89
2024-03-16T05:11:00,prt,28.90
2024-03-16T05:12:00,prt,28.87
2024-03-16T05:13:00,prt,27.06
2024-03-16T05:14:00,prt,26.11
2024-03-16T05:15:00,prt,29.51
2024-03-16T05:16:00,prt,29.82
2024-03-16T05:17:00,prt,29.63
2024-03-16T05:18:00,prt,30.09
2024-03-16T05:19:00,prt,30.86
2024-03-16T05:20:00,prt,30.89
2024-03-16T05:21:00,prt,32.33
2024-03-16T05:22:00,prt,31.62
2024-03-16T05:23:00,prt,33.66
2024-03-16T05:24:00,prt,31.53
2024-03-16T05:25:00,prt,32.67
2024-03-16T05:26:00,prt,31.79
2024-03-16T05:27:00,prt,32.45
2024-03-16T05:28:00,prt,29.29
2024-03-16T05:29:00,prt,29.37
2024-03-16T05:30:00,prt,27.35
2024-03-16T05:31:00,prt,26.63
2024-03-16T05:32:00,prt,26.00
2024-03-16T05:33:00,prt,26.16
2024-03-16T05:34:00,prt,26.13
2024-03-16T05:35:00,prt,27.39
2024-03-16T05:36:00,prt,29.59
2024-03-16T05:37:00,prt,27.68
2024-03-16T05:38:00,prt,28.43
2024-03-16T05:39:00,prt,27.96
2024-03-16T05:40:00,prt,28.03
2024-03-16T05:41:00,prt,27.61
2024-03-16T05:42:00,prt,28.85
2024-03-16T05:43:00,prt,29.79
2024-03-16T05:44:00,prt,28.77
2024-03-16T05:45:00,prt,25.30
2024-03-16T05:46:00,prt,28.38
2024-03-16T05:47:00,prt,28.78
2024-03-16T05:48:00,prt,29.48
2024-03-16T05:49:00,prt,28.81
2024-03-16T05:50:00,prt,28.86
2024-03-16T05:51:00,prt,31.80
2024-03-16T05:52:00,prt,27.55
2024-03-16T05:53:00,prt,31.52
2024-03-16T05:54:00,prt,31.69
2024-03-16T05:55:00,prt,31.11
2024-03-16T05:56:00,prt,30.28
2024-03-16T05:57:00,prt,29.97
2024-03-16T05:58:00,prt,29.59
2024-03-16T05:59:00,prt,30.75
2024-03-16T06:00:00,prt,30.83
2024-03-16T06:01:00,prt,32.99
2024-03-16T06:02:00,prt,34.44
2024-03-16T06:03:00,prt,36.97
2024-03-16T06:04:00,prt,35.19
2024-03-16T06:05:00,prt,36.41
2024-03-16T06:06:00,prt,36.01
2024-03-16T06:07:00,prt,37.09
2024-03-16T06:08:00,prt,36.14
2024-03-16T06:09:00,prt,38.28
2024-03-16T06:10:00,prt,36.50
2024-03-16T06:11:00,prt,37.03
2024-03-16T06:12:00,prt,38.01
2024-03-16T06:13:00,prt,38.12
2024-03-16T06:14:00,prt,37.88
2024-03-16T06:15:00,prt,38.15
2024-03-16T06:16:00,prt,39.34
2024-03-16T06:17:00,prt,37.49
2024-03-16T06:18:00,prt,37.94
2024-03-16T06:19:00,prt,38.16
2024-03-16T06:20:00,prt,38.21
2024-03-16T06:21:00,prt,38.61
2024-03-16T06:22:00,prt,33.88
2024-03-16T06:23:00,prt,34.46
2024-03-16T06:24:00,prt,33.69
2024-03-16T06:25:00,prt,33.29
2024-03-16T06:26:00,prt,36.59
2024-03-16T06:27:00,prt,37.61
2024-03-16T06:28:00,prt,38.12
2024-03-16T06:29:00,prt,39.30
2024-03-16T06:30:00,prt,36.16
2024-03-16T06:31:00,prt,35.73
2024-03-16T06:32:00,prt,33.79
2024-03-16T06:33:00,prt,35.28
2024-03-16T06:34:00,prt,36.49
2024-03-16T06:35:00,prt,37.02
2024-03-16T06:36:00,prt,34.25
2024-03-16T06:37:00,prt,35.42
2024-03-16T06:38:00,prt,34.36
2024-03-16T06:39:00,prt,35.38
2024-03-16T06:40:00,prt,35.30
2024-03-16T06:41:00,prt,35.74
2024-03-16T06:42:00,prt,36.60
2024-03-16T06:43:00,prt,36.51
2024-03-16T06:44:00,prt,38.38
2024-03-16T06:45:00,prt,39.40
2024-03-16T06:46:00,prt,40.64
2024-03-16T06:47:00,prt,40.20
2024-03-16T06:48:00,prt,38.47
2024-03-16T06:49:00,prt,35.92
2024-03-16T06:50:00,prt,35.33
2024-03-16T06:51:00,prt,37.00
2024-03-16T06:52:00,prt,38.22
2024-03-16T06:53:00,prt,41.18
2024-03-16T06:54:00,prt,39.44
2024-03-16T06:55:00,prt,39.63
2024-03-16T06:56:00,prt,38.88
2024-03-16T06:57:00,prt,38.78
2024-03-16T06:58:00,prt,40.97
2024-03-16T06:59:00,prt,33.83
2024-03-16T07:00:00,prt,39.21
2024-03-16T07:01:00,prt,42.28
2024-03-16T07:02:00,prt,42.33
2024-03-16T07:03:00,prt,41.17
2024-03-16T07:04:00,prt,38.22
2024-03-16T07:05:00,prt,36.62
2024-03-16T07:06:00,prt,36.69
2024-03-16T07:07:00,prt,36.81
2024-03-16T07:08:00,prt,36.39
2024-03-16T07:09:00,prt,37.96
2024-03-16T07:10:00,prt,37.12
2024-03-16T07:11:00,prt,38.75
2024-03-16T07:12:00,prt,39.38
2024-03-16T07:13:00,prt,38.74
2024-03-16T07:14:00,prt,39.68
2024-03-16T07:15:00,prt,40.18
2024-03-16T07:16:00,prt,39.99
2024-03-16T07:17:00,prt,40.70
2024-03-16T07:18:00,prt,39.08
2024-03-16T07:19:00,prt,39.25
2024-03-16T07:20:00,prt,38.98
2024-03-16T07:21:00,prt,36.36
2024-03-16T07:22:00,prt,36.36
2024-03-16T07:23:00,prt,36.50
2024-03-16T07:24:00,prt,39.92
2024-03-16T07:25:00,prt,37.57
2024-03-16T07:26:00,prt,38.24
2024-03-16T07:27:00,prt,38.01
2024-03-16T07:28:00,prt,38.71
2024-03-16T07:29:00,prt,39.77
2024-03-16T07:30:00,prt,39.64
2024-03-16T07:31:00,prt,38.93
2024-03-16T07:32:00,prt,39.21
2024-03-16T07:33:00,prt,43.80
2024-03-16T07:34:00,prt,47.59
2024-03-16T07:35:00,prt,47.94
2024-03-16T07:36:00,prt,48.54
2024-03-16T07:37:00,prt,43.81
2024-03-16T07:38:00,prt,40.21
2024-03-16T07:39:00,prt,39.48
2024-03-16T07:40:00,prt,39.33
2024-03-16T07:41:00,prt,36.36
2024-03-16T07:42:00,prt,37.00
2024-03-16T07:43:00,prt,36.61
2024-03-16T07:44:00,prt,36.74
2024-03-16T07:45:00,prt,36.80
2024-03-16T07:46:00,prt,39.27
2024-03-16T07:47:00,prt,40.95
2024-03-16T07:48:00,prt,34.53
2024-03-16T07:49:00,prt,37.32
2024-03-16T07:50:00,prt,35.27
2024-03-16T07:51:00,prt,38.43
2024-03-16T07:52:00,prt,36.70
2024-03-16T07:53:00,prt,35.25
2024-03-16T07:54:00,prt,34.68
2024-03-16T07:55:00,prt,37.44
2024-03-16T07:56:00,prt,33.88
2024-03-16T07:57:00,prt,33.65
2024-03-16T07:58:00,prt,36.86
2024-03-16T07:59:00,prt,37.02
2024-03-16T08:00:00,prt,36.43
2024-03-16T08:01:00,prt,35.69
2024-03-16T08:02:00,prt,39.01
2024-03-16T08:03:00,prt,36.53
2024-03-16T08:04:00,prt,33.64
2024-03-16T08:05:00,prt,33.98
2024-03-16T08:06:00,prt,33.99
2024-03-16T08:07:00,prt,38.07
2024-03-16T08:08:00,prt,37.88
2024-03-16T08:09:00,prt,40.14
2024-03-16T08:10:00,prt,39.58
2024-03-16T08:11:00,prt,36.16
2024-03-16T08:12:00,prt,35.15
2024-03-16T08:13:00,prt,34.40
2024-03-16T08:14:00,prt,34.58
2024-03-16T08:15:00,prt,34.93
2024-03-16T08:16:00,prt,33.43
2024-03-16T08:17:00,prt,34.14
2024-03-16T08:18:00,prt,34.97
2024-03-16T08:19:00,prt,37.30
2024-03-16T08:20:00,prt,37.35
2024-03-16T08:21:00,prt,36.60
2024-03-16T08:22:00,prt,38.02
2024-03-16T08:23:00,prt,37.63
2024-03-16T08:24:00,prt,38.59
2024-03-16T08:25:00,prt,40.86
2024-03-16T08:26:00,prt,39.83
2024-03-16T08:27:00,prt,37.57
2024-03-16T08:28:00,prt,37.03
2024-03-16T08:29:00,prt,36.90
2024-03-16T08:30:00,prt,36.49
2024-03-16T08:31:00,prt,33.15
2024-03-16T08:32:00,prt,32.32
2024-03-16T08:33:00,prt,32.71
2024-03-16T08:34:00,prt,32.93
2024-03-16T08:35:00,prt,32.99
2024-03-16T08:36:00,prt,35.51
2024-03-16T08:37:00,prt,33.70
2024-03-16T08:38:00,prt,34.71
2024-03-16T08:39:00,prt,34.61
2024-03-16T08:40:00,prt,33.67
2024-03-16T08:41:00,prt,36.11
2024-03-16T08:42:00,prt,36.88
2024-03-16T08:43:00,prt,39.41
2024-03-16T08:44:00,prt,37.16
2024-03-16T08:45:00,prt,35.23
2024-03-16T08:46:00,prt,33.36
2024-03-16T08:47:00,prt,33.75
2024-03-16T08:48:00,prt,33.07
2024-03-16T08:49:00,prt,33.26
2024-03-16T08:50:00,prt,34.27
2024-03-16T08:51:00,prt,32.49
2024-03-16T08:52:00,prt,32.06
2024-03-16T08:53:00,prt,33.65
2024-03-16T08:54:00,prt,32.23
2024-03-16T08:55:00,prt,38.21
2024-03-16T08:56:00,prt,37.38
2024-03-16T08:57:00,prt,38.17
2024-03-16T08:58:00,prt,41.05
2024-03-16T08:59:00,prt,39.40
2024-03-16T09:00:00,prt,40.08
2024-03-16T09:01:00,prt,39.65
2024-03-16T09:02:00,prt,37.75
2024-03-16T09:03:00,prt,37.29
2024-03-16T09:04:00,prt,36.36
2024-03-16T09:05:00,prt,35.90
2024-03-16T09:06:00,prt,35.20
2024-03-16T09:07:00,prt,35.37
2024-03-16T09:08:00,prt,34.57
2024-03-16T09:09:00,prt,36.68
2024-03-16T09:10:00,prt,36.95
2024-03-16T09:11:00,prt,36.44
2024-03-16T09:12:00,prt,35.98
2024-03-16T09:13:00,prt,34.34
2024-03-16T09:14:00,prt,33.82
2024-03-16T09:15:00,prt,37.07
2024-03-16T09:16:00,prt,36.69
2024-03-16T09:17:00,prt,37.23
2024-03-16T09:18:00,prt,36.39
2024-03-16T09:19:00,prt,35.06
2024-03-16T09:20:00,prt,35.67
2024-03-16T09:21:00,prt,34.66
2024-03-16T09:22:00,prt,34.84
2024-03-16T09:23:00,prt,35.08
2024-03-16T09:24:00,prt,34.61
2024-03-16T09:25:00,prt,36.14
2024-03-16T09:26:00,prt,39.05
2024-03-16T09:27:00,prt,38.26
2024-03-16T09:28:00,prt,37.76
2024-03-16T09:29:00,prt,36.47
2024-03-16T09:30:00,prt,37.80
2024-03-16T09:31:00,prt,33.20
2024-03-16T09:32:00,prt,35.25
2024-03-16T09:33:00,prt,35.68
2024-03-16T09:34:00,prt,35.96
2024-03-16T09:35:00,prt,36.73
2024-03-16T09:36:00,prt,37.07
2024-03-16T09:37:00,prt,37.41
2024-03-16T09:38:00,prt,36.17
2024-03-16T09:39:00,prt,35.90
2024-03-16T09:40:00,prt,35.83
2024-03-16T09:41:00,prt,37.62
2024-03-16T09:42:00,prt,37.97
2024-03-16T09:43:00,prt,38.05
2024-03-16T09:44:00,prt,36.90
2024-03-16T09:45:00,prt,33.97
2024-03-16T09:46:00,prt,36.40
2024-03-16T09:47:00,prt,33.54
2024-03-16T09:48:00,prt,36.95
2024-03-16T09:49:00,prt,36.43
2024-03-16T09:50:00,prt,36.54
2024-03-16T09:51:00,prt,36.21
2024-03-16T09:52:00,prt,33.48
2024-03-16T09:53:00,prt,35.41
2024-03-16T09:54:00,prt,36.66
2024-03-16T09:55:00,prt,35.61
2024-03-16T09:56:00,prt,39.26
2024-03-16T09:57:00,prt,38.52
2024-03-16T09:58:00,prt,38.33
2024-03-16T09:59:00,prt,38.72
2024-03-16T10:00:00,prt,36.82
2024-03-16T10:01:00,prt,36.46
2024-03-16T10:02:00,prt,35.26
2024-03-16T10:03:00,prt,34.60
2024-03-16T10:04:00,prt,34.23
2024-03-16T10:05:00,prt,34.22
2024-03-16T10:06:00,prt,33.40
2024-03-16T10:07:00,prt,33.46
2024-03-16T10:08:00,prt,33.55
2024-03-16T10:09:00,prt,34.52
2024-03-16T10:10:00,prt,35.88
2024-03-16T10:11:00,prt,36.36
2024-03-16T10:12:00,prt,35.47
2024-03-16T10:13:00,prt,36.28
2024-03-16T10:14:00,prt,34.74
2024-03-16T10:15:00,prt,34.59
2024-03-16T10:16:00,prt,36.03
2024-03-16T10:17:00,prt,32.86
2024-03-16T10:18:00,prt,36.36
2024-03-16T10:19:00,prt,34.55
2024-03-16T10:20:00,prt,34.29
2024-03-16T10:21:00,prt,39.44
2024-03-16T10:22:00,prt,38.15
2024-03-16T10:23:00,prt,38.75
2024-03-16T10:24:00,prt,41.27
2024-03-16T10:25:00,prt,34.05
2024-03-16T10:26:00,prt,33.05
2024-03-16T10:27:00,prt,36.67
2024-03-16T10:28:00,prt,37.47
2024-03-16T10:29:00,prt,37.90
2024-03-16T10:30:00,prt,36.31
2024-03-16T10:31:00,prt,35.86
2024-03-16T10:32:00,prt,34.89
2024-03-16T10:33:00,prt,35.89
2024-03-16T10:34:00,prt,33.20
2024-03-16T10:35:00,prt,33.02
2024-03-16T10:36:00,prt,33.36
2024-03-16T10:37:00,prt,33.64
2024-03-16T10:38:00,prt,34.45
2024-03-16T10:39:00,prt,35.46
2024-03-16T10:40:00,prt,34.17
2024-03-16T10:41:00,prt,34.58
2024-03-16T10:42:00,prt,34.10
2024-03-16T10:43:00,prt,33.20
2024-03-16T10:44:00,prt,36.12
2024-03-16T10:45:00,prt,36.30
2024-03-16T10:46:00,prt,36.29
2024-03-16T10:47:00,prt,35.99
2024-03-16T10:48:00,prt,35.12
2024-03-16T10:49:00,prt,34.08
2024-03-16T10:50:00,prt,32.87
2024-03-16T10:51:00,prt,33.48
2024-03-16T10:52:00,prt,32.18
2024-03-16T10:53:00,prt,32.03
2024-03-16T10:54:00,prt,32.17
2024-03-16T10:55:00,prt,35.49
2024-03-16T10:56:00,prt,36.37
2024-03-16T10:57:00,prt,35.92
2024-03-16T10:58:00,prt,37.87
2024-03-16T10:59:00,prt,37.54
2024-03-16T11:00:00,prt,38.78
2024-03-16T11:01:00,prt,39.98
2024-03-16T11:02:00,prt,38.73
2024-03-16T11:03:00,prt,38.13
2024-03-16T11:04:00,prt,39.06
2024-03-16T11:05:00,prt,36.07
2024-03-16T11:06:00,prt,33.72
2024-03-16T11:07:00,prt,34.29
2024-03-16T11:08:00,prt,32.57
2024-03-16T11:09:00,prt,34.75
2024-03-16T11:10:00,prt,34.09
2024-03-16T11:11:00,prt,34.21
2024-03-16T11:12:00,prt,34.52
2024-03-16T11:13:00,prt,33.79
2024-03-16T11:14:00,prt,33.65
2024-03-16T11:15:00,prt,34.98
2024-03-16T11:16:00,prt,34.36
2024-03-16T11:17:00,prt,33.73
2024-03-16T11:18:00,prt,33.73
2024-03-16T11:19:00,prt,34.90
2024-03-16T11:20:00,prt,33.58
2024-03-16T11:21:00,prt,35.51
2024-03-16T11:22:00,prt,35.54
2024-03-16T11:23:00,prt,36.75
2024-03-16T11:24:00,prt,34.38
2024-03-16T11:25:00,prt,34.25
2024-03-16T11:26:00,prt,34.77
2024-03-16T11:27:00,prt,34.22
2024-03-16T11:28:00,prt,34.27
2024-03-16T11:29:00,prt,36.85
2024-03-16T11:30:00,prt,37.36
2024-03-16T11:31:00,prt,40.20
2024-03-16T11:32:00,prt,39.69
2024-03-16T11:33:00,prt,38.33
2024-03-16T11:34:00,prt,38.33
2024-03-16T11:35:00,prt,40.45
2024-03-16T11:36:00,prt,40.41
2024-03-16T11:37:00,prt,36.24
2024-03-16T11:38:00,prt,35.66
2024-03-16T11:39:00,prt,35.64
2024-03-16T11:40:00,prt,35.41
2024-03-16T11:41:00,prt,35.77
2024-03-16T11:42:00,prt,35.40
2024-03-16T11:43:00,prt,35.88
2024-03-16T11:44:00,prt,37.62
2024-03-16T11:45:00,prt,36.66
2024-03-16T11:46:00,prt,35.80
2024-03-16T11:47:00,prt,35.11
2024-03-16T11:48:00,prt,35.27
2024-03-16T11:49:00,prt,37.05
2024-03-16T11:50:00,prt,35.21
2024-03-16T11:51:00,prt,33.97
2024-03-16T11:52:00,prt,32.76
2024-03-16T11:53:00,prt,32.64
2024-03-16T11:54:00,prt,32.16
2024-03-16T11:55:00,prt,32.29
2024-03-16T11:56:00,prt,32.13
2024-03-16T11:57:00,prt,32.46
2024-03-16T11:58:00,prt,31.74
2024-03-16T11:59:00,prt,34.80
2024-03-16T12:00:00,prt,32.59
2024-03-16T12:01:00,prt,33.65
2024-03-16T12:02:00,prt,37.22
2024-03-16T12:03:00,prt,36.10
2024-03-16T12:04:00,prt,38.79
2024-03-16T12:05:00,prt,38.07
2024-03-16T12:06:00,prt,35.38
2024-03-16T12:07:00,prt,36.22
2024-03-16T12:08:00,prt,35.50
2024-03-16T12:09:00,prt,36.54
2024-03-16T12:10:00,prt,32.20
2024-03-16T12:11:00,prt,32.51
2024-03-16T12:12:00,prt,32.75
2024-03-16T12:13:00,prt,32.10
2024-03-16T12:14:00,prt,35.24
2024-03-16T12:15:00,prt,34.94
2024-03-16T12:16:00,prt,34.57
2024-03-16T12:17:00,prt,34.29
2024-03-16T12:18:00,prt,32.89
2024-03-16T12:19:00,prt,31.03
2024-03-16T12:20:00,prt,32.84
2024-03-16T12:21:00,prt,34.64
2024-03-16T12:22:00,prt,35.41
2024-03-16T12:23:00,prt,35.43
2024-03-16T12:24:00,prt,36.50
2024-03-16T12:25:00,prt,35.62
2024-03-16T12:26:00,prt,35.74
2024-03-16T12:27:00,prt,32.40
2024-03-16T12:28:00,prt,32.84
2024-03-16T12:29:00,prt,33.91
2024-03-16T12:30:00,prt,34.08
2024-03-16T12:31:00,prt,34.43
2024-03-16T12:32:00,prt,32.23
2024-03-16T12:33:00,prt,32.75
2024-03-16T12:34:00,prt,35.80
2024-03-16T12:35:00,prt,33.60
2024-03-16T12:36:00,prt,40.12
2024-03-16T12:37:00,prt,41.25
2024-03-16T12:38:00,prt,38.87
2024-03-16T12:39:00,prt,35.45
2024-03-16T12:40:00,prt,32.95
2024-03-16T12:41:00,prt,33.09
2024-03-16T12:42:00,prt,31.39
2024-03-16T12:43:00,prt,31.32
2024-03-16T12:44:00,prt,31.19
2024-03-16T12:45:00,prt,34.05
2024-03-16T12:46:00,prt,30.65
2024-03-16T12:47:00,prt,32.46
2024-03-16T12:48:00,prt,33.64
2024-03-16T12:49:00,prt,33.71
2024-03-16T12:50:00,prt,32.60
2024-03-16T12:51:00,prt,34.61
2024-03-16T12:52:00,prt,34.11
2024-03-16T12:53:00,prt,33.36
2024-03-16T12:54:00,prt,33.34
2024-03-16T12:55:00,prt,34.55
2024-03-16T12:56:00,prt,35.72
2024-03-16T12:57:00,prt,35.19
2024-03-16T12:58:00,prt,35.02
2024-03-16T12:59:00,prt,34.31
2024-03-16T13:00:00,prt,36.95
2024-03-16T13:01:00,prt,37.57
2024-03-16T13:02:00,prt,35.99
2024-03-16T13:03:00,prt,35.57
2024-03-16T13:04:00,prt,36.19
2024-03-16T13:05:00,prt,38.56
2024-03-16T13:06:00,prt,37.19
2024-03-16T13:07:00,prt,35.45
2024-03-16T13:08:00,prt,35.18
2024-03-16T13:09:00,prt,38.16
2024-03-16T13:10:00,prt,39.42
2024-03-16T13:11:00,prt,41.44
2024-03-16T13:12:00,prt,40.55
2024-03-16T13:13:00,prt,36.99
2024-03-16T13:14:00,prt,36.38
2024-03-16T13:15:00,prt,36.24
2024-03-16T13:16:00,prt,34.48
2024-03-16T13:17:00,prt,33.66
2024-03-16T13:18:00,prt,32.89